weather.gov     
National Weather Service

Regional Weather Roundup
NWS Homepage
This page is being discontinued on March 12, 2014.
The same data is available at this site. Please update your bookmarks.
Thank you, and we apologize for the inconvenience.
Please send an email to SR-SRH.Webmaster@noaa.gov with any concerns.


Current Version
Previous Version:    01  02  03  04  05  06  07  08  09  10  11  12  13  14  15  16  17  18  19  20  21  22  23  24  25  26  27  28  29  30  
   31  32  33  34  35  36  37  38  39  40  41  42  43  44  45  46  47  48  49  50  51  52  53  54  55  56  57  58  59  60  
[Printable]
146
ASUS43 KBIS 241220
RWRBIS

NWR BROADCAST TEXT
NATIONAL WEATHER SERVICE BISMARCK ND
700 AM CDT THU APR 24 2014

NOTE: "FAIR" INDICATES FEW OR NO CLOUDS BELOW 12,000 FEET WITH NO
SIGNIFICANT WEATHER AND/OR OBSTRUCTIONS TO VISIBILITY.


CITY           SKY/WX    TMP DP  RH WIND       PRES   REMARKS
WILLISTON      CLEAR     37  26  64 SW8       29.70R
MINOT          CLEAR     39  29  67 SW10      29.65F
MINOT AFB      CLEAR     35  34  93 W14       29.64F
BISMARCK       CLEAR     36  29  75 NW6       29.73S
DICKINSON      CLEAR     34  24  67 W10       29.73S
GARRISON         N/A     33  28  81 W8        29.69S
HETTINGER ARPT CLEAR     28  21  75 NW9       29.79S WCI  19
JAMESTOWN      FOG       37  37 100 SW3       29.72S VSB 1/4
CARRINGTON     FOG       36  36 100 SE9       29.72R VSB<1/4
CROSBY         PTSUNNY   36  32  87 S10       29.66S
HARVEY         FAIR      34  34 100 SE6       29.69R FOG
HAZEN          FAIR      30  25  80 SW8       29.73S
LINTON         FAIR      28  28 100 W6        29.73S
MANDAN         FAIR      36  27  69 W13       29.72S
OAKES          FAIR      37  37 100 CALM      29.73S FOG
RUGBY          FOG       34  34 100 SE6       29.69R VSB<1/4
STANLEY        FAIR      34  32  93 W14       29.67S
TIOGA          FAIR      36  28  75 SW10      29.70R
WATFORD CITY   FAIR      30  25  80 SW10      29.70S
$$

CITY           SKY/WX    TMP DP  RH WIND       PRES   REMARKS
GRAND FORKS    CLOUDY    39  37  93 SE8       29.77S
GRAND FORKS AF CLOUDY    39  39 100 SE8       29.77S
DEVILS LAKE    CLOUDY    37  34  87 SE7       29.71F VSB 1/4
FARGO          CLOUDY    42  38  85 S7        29.77R
CANDO          FOG       37  37 100 SE8       29.72R VSB<1/4
CAVALIER       FOG       37  37 100 SE8       29.77F VSB 1
GRAFTON        CLOUDY    37  37 100 SE12      29.77F FOG
GWINNER        SUNNY     39  39 100 SE7       29.75S
LANGDON        FOG       36  36 100 SE10      29.73R VSB<1/4
ROLLA          FOG       37  37 100 S7        29.69S VSB<1/4
WALHALLA       CLOUDY    37  37 100 SE10      29.77S FOG
$$

CITY           SKY/WX    TMP DP  RH WIND       PRES   REMARKS
ABERDEEN       CLOUDY    37  37 100 NW7       29.74S FOG
MOBRIDGE       PTCLDY    34  30  85 NW6       29.72R
BUFFALO          N/A     33  22  63 W12       29.75S
RAPID CITY     CLEAR     33  19  56 W9        29.85S
GLASGOW        CLEAR     32  26  78 W9        29.74R
SIDNEY         CLEAR     41  25  52 W12G18    29.73S
WOLF POINT     CLEAR     33  25  72 SW10      29.74R
GLENDIVE       CLEAR     34  21  60 W10       29.77S
MILES CITY     PTCLDY    40  26  57 W10       29.81R
BAKER          MOCLDY    37  24  59 SW12      29.79F
$$

CITY           SKY/WX    TMP DP  RH WIND       PRES   REMARKS
BILLINGS       MOCLDY    38  24  57 SW6       29.83S
GREAT FALLS    CLOUDY    39  30  70 SW14      29.79S
REGINA         MOCLDY    39  37  93 SW7       29.62F
ESTEVAN        PTCLDY    34  32  93 SW10      29.65R
$$





U.S. Dept. of Commerce
NOAA National Weather Service
1325 East West Highway
Silver Spring, MD 20910
E-mail: w-nws.webmaster@noaa.gov
Page last modified: May 16, 2007
NATIONAL WEATHER SERVICE: for Safety, for Work, for Fun - FOR LIFE